Weather in Mostovskoe

Russia / Sverdlovsk Oblast     57°09′48″N   60°38′58″E
temp.,
°C
wind,
m/s
gust,
m/s
humid.,
%
clouds,
%
prec.,
mm/h
press.,
hPa
HPBL,
m
24 january, sun
sun2423:00−29sse3695100 0.0 1036221
02:00−28sse369599 0.0 1035221
05:00−29se369798 0.0 1035177
08:00−27se3697100 0.0 1034231
11:00−24sse3796100 0.1 1032242
14:00−21sse4897100 0.4 1030302
17:00−20sse4898100 0.9 1028316
20:00−18sse3797100 1.3 1027237
25 january, mon
mon2523:00−16sse2497100 1.9 1027132
02:00−14s1297100 0.3 102620
05:00−14nne1197100 0.1 102720
08:00−12e0196100 0.0 102620
11:00−8sse1196100 0.2 102736
14:00−1nw149999 0.1 1027175
17:00+1w41098100 0.6 1027464
20:00−3wsw4119288 0.0 1028406
26 january, tue
tue2623:00−4wsw3109392 0.0 1027307
02:00−3wsw4129197 0.0 1027501
05:00−3wsw5129097 0.0 1027522
08:00−3wsw5129088 0.1 1028538
11:00−3w5128890 0.0 1028567
14:00−3wsw5118897 0.0 1028592
17:00−4wsw4128998 0.0 1027633
20:00−3wsw41289100 0.0 1027753
27 january, wed
wed2723:00−3wsw41190100 0.0 1025772
02:00−3wsw41189100 0.0 1025768
05:00−4wsw51190100 0.0 1025552
08:00−7wsw31090100 0.0 1024437
11:00−6wsw4119099 0.0 1026534
14:00−5wsw4989100 0.0 1027516
17:00−6w2495100 0.1 1026134
20:00−8wsw3119498 0.0 1028347
28 january, thu
thu2823:00−9wsw3129394 0.0 1027362
02:00−10sw389393 0.0 1027181
05:00−9sw3119193 0.0 1027308
08:00−7wsw3128599 0.0 1027299
11:00−19sse249586 0.0 1038176
14:00−14sse369267 0.0 1036250
17:00−14s379475 0.0 1035243
20:00−4ssw3886100 0.0 1023177